This is the latest recevied weather packets stored in our database for station/object XW7RMR. If no packets are shown the sender has not sent any weather packets the latest 10 day(s).
| Time | Temp. | Humidity | Pressure | Rain* | Wind** | Luminosity | Snow |
|---|---|---|---|---|---|---|---|
| 1777087603 | 15.56° C | 28% | 1012 hPa | 0 mm | - | 0 W/m² | - |
| 1777087303 | 15.56° C | 28% | 1011.8 hPa | 0 mm | - | 1 W/m² | - |
| 1777086998 | 15.56° C | 28% | 1012.1 hPa | 0 mm | - | 2 W/m² | - |
| 1777086693 | 16.11° C | 27% | 1012 hPa | 0 mm | - | 3 W/m² | - |
| 1777086389 | 16.11° C | 27% | 1011.9 hPa | 0 mm | - | 5 W/m² | - |
| 1777086085 | 16.11° C | 29% | 1012.3 hPa | 0 mm | - | 8 W/m² | - |
| 1777085781 | 16.67° C | 28% | 1011.9 hPa | 0 mm | - | 11 W/m² | - |
| 1777085477 | 16.67° C | 28% | 1012.1 hPa | 0 mm | - | 14 W/m² | - |
| 1777085174 | 16.67° C | 28% | 1011.9 hPa | 0 mm | - | 17 W/m² | - |
| 1777084869 | 17.22° C | 28% | 1011.9 hPa | 0 mm | - | 21 W/m² | - |
| 1777084566 | 17.22° C | 28% | 1012 hPa | 0 mm | - | 24 W/m² | - |
| 1777084266 | 17.78° C | 28% | 1012 hPa | 0 mm | - | 30 W/m² | - |
| 1777083961 | 17.78° C | 28% | 1012.1 hPa | 0 mm | - | 34 W/m² | - |
| 1777083658 | 17.78° C | 29% | 1011.9 hPa | 0 mm | - | 39 W/m² | - |
| 1777083355 | 17.78° C | 29% | 1012.1 hPa | 0 mm | - | 45 W/m² | - |
| 1777083051 | 18.33° C | 30% | 1011.9 hPa | 0 mm | - | 56 W/m² | - |
| 1777082746 | 18.33° C | 30% | 1011.8 hPa | 0 mm | - | 66 W/m² | - |
| 1777082442 | 18.33° C | 32% | 1011.9 hPa | 0 mm | - | 77 W/m² | - |
| 1777082142 | 18.33° C | 32% | 1012 hPa | 0 mm | - | 88 W/m² | - |
| 1777081838 | 18.33° C | 34% | 1011.9 hPa | 0 mm | - | 100 W/m² | - |
| 1777081538 | 18.33° C | 34% | 1012 hPa | 0 mm | - | 112 W/m² | - |
| 1777081235 | 18.33° C | 35% | 1012.2 hPa | 0 mm | - | 125 W/m² | - |
| 1777080933 | 18.33° C | 34% | 1012 hPa | 0 mm | - | 137 W/m² | - |
| 1777080628 | 18.89° C | 35% | 1012.1 hPa | 0 mm | - | 150 W/m² | - |
| 1777080324 | 18.89° C | 34% | 1012.1 hPa | 0 mm | - | 162 W/m² | - |
* Rain latest hour (hover to see other rain measurements)
** Current wind speed in m/s (hover to see current wind gust speed)